Wind_Speed
14 21 21 17 18 20 20 25 26 27 26 27 23 26 30 29 33 34 33 32 32 33 33 32 30 31 29 28 25 25 22 17 18 11 7 7 9 10 12 14 14 14 14
5 10 15 14 16 20 21 22 28 29 28 25 30 24 26 28 31 31 36 35 34 34 33 36 37 36 32 30 31 30 25 19 21 8 4 3 5 11 13 15 16 16 16
10 8 8 12 14 18 22 23 23 27 30 30 26 23 18 22 19 29 32 38 38 36 36 37 38 38 36 35 35 34 32 24 24 17 6 2 4 2 10 16 17 17 17
3 2 4 5 6 13 17 20 21 22 26 30 26 26 25 24 29 28 31 31 39 40 39 39 39 38 39 38 38 36 37 32 23 21 19 11 6 3 2 8 16 17 18
5 7 7 11 13 10 1 8 14 20 20 22 27 27 27 25 25 26 25 27 37 40 43 42 42 41 40 41 39 38 40 37 28 26 16 19 14 12 5 3 6 14 16
5 5 7 11 13 14 15 12 4 3 9 16 22 26 26 26 24 31 31 31 35 36 39 41 43 43 42 42 42 40 42 41 32 31 23 15 6 7 6 2 2 5 10
4 5 6 9 12 15 15 12 11 8 6 3 9 22 24 26 30 29 29 29 33 34 38 41 42 43 43 42 41 40 40 41 35 29 28 20 16 9 12 4 5 5 3
4 5 6 8 11 14 16 16 15 12 10 8 6 7 19 21 26 32 34 34 35 36 35 38 39 38 37 36 36 35 35 34 29 23 21 21 16 14 12 9 5 2 1
5 6 8 11 13 16 17 19 19 17 14 13 13 12 12 16 25 26 30 31 30 29 28 29 33 33 31 30 29 30 30 27 24 21 17 15 14 12 12 9 10 3 2
5 5 5 8 11 14 16 17 17 18 18 17 15 15 15 16 18 22 24 24 24 23 22 22 26 28 27 27 27 26 26 25 19 16 17 13 9 6 3 5 4 5 2
3 3 3 5 9 12 15 16 18 19 19 16 14 14 15 15 15 15 15 14 15 16 16 18 21 23 24 23 25 25 22 21 21 18 16 13 11 5 4 2 1 4 5
2 1 1 4 7 11 14 16 17 17 17 14 10 8 8 9 7 7 7 7 9 11 14 17 20 21 23 24 23 23 22 23 22 18 16 13 9 4 3 2 7 8 10
1 1 1 3 7 9 12 16 18 18 16 13 9 6 3 1 2 4 6 8 10 12 13 17 21 23 24 25 25 26 25 21 18 13 10 8 6 4 6 8 9 10 9
3 1 2 4 8 9 14 16 17 16 13 12 9 7 6 7 9 11 13 15 16 17 19 20 22 25 28 29 29 26 22 18 14 13 11 8 7 5 7 8 6 8 9
2 1 2 3 7 10 12 13 15 16 15 14 15 15 14 15 17 18 19 20 20 20 21 25 25 27 27 26 27 25 23 19 14 9 5 1 2 3 7 5 7 10 8
3 3 4 5 7 9 10 12 14 16 16 19 17 17 17 19 21 21 22 22 23 25 26 28 29 28 28 24 22 20 17 13 9 7 4 4 3 4 5 6 9 8 8
3 4 4 6 7 9 10 11 10 13 18 18 14 15 17 20 21 22 26 26 25 26 29 30 28 27 21 17 16 16 14 11 8 7 5 2 3 5 7 8 7 8 9
4 4 5 8 7 6 8 8 8 13 17 16 14 13 14 18 17 20 27 27 25 25 24 27 26 24 19 17 17 16 14 12 9 5 2 2 5 7 8 9 10 10 12
4 6 8 9 8 7 10 11 10 13 13 16 14 14 15 17 18 24 27 26 29 27 24 24 22 21 18 15 15 13 10 8 5 2 2 4 8 8 9 11 11 12 17
7 9 10 9 8 7 8 12 11 12 13 14 17 15 17 20 22 25 26 26 26 24 22 21 18 16 15 11 9 8 5 4 3 4 7 8 8 9 10 12 12 11 15
9 9 8 9 8 8 9 13 12 16 15 16 18 17 20 22 22 24 23 24 23 21 18 17 15 14 12 10 8 4 4 5 7 7 7 9 8 11 11 10 10 10 13
9 9 10 9 9 9 13 16 16 15 18 19 21 22 21 21 23 23 20 18 18 18 16 16 13 12 10 7 6 5 6 6 6 6 8 8 10 11 11 10 10 10 10
10 9 11 10 8 10 13 19 17 18 22 23 23 22 20 20 19 17 15 14 14 15 13 10 10 8 6 5 5 5 6 6 5 7 6 10 11 11 11 9 9 8 9
10 13 11 10 10 10 15 19 20 19 21 22 21 19 18 15 13 13 12 12 11 11 10 8 7 6 5 5 4 6 8 8 9 9 10 10 10 10 9 9 8 8 8
11 13 12 11 10 13 17 18 20 20 19 18 18 16 14 14 14 12 10 10 8 6 8 8 7 5 4 4 4 5 6 7 8 8 11 12 11 10 10 10 10 11 10
15 12 14 16 13 15 18 19 18 18 20 18 16 15 15 15 15 17 17 11 10 9 9 7 5 4 3 2 3 5 6 7 7 8 7 8 8 8 9 10 12 13 13
Wind_Direction
245 260 266 254 245 242 236 232 227 229 223 221 213 219 225 229 234 235 235 233 230 228 227 227 223 222 221 221 217 208 207 201 196 184 204 218 224 224 219 215 212 215 216
253 259 263 259 246 244 238 235 231 229 222 212 218 215 224 230 233 236 235 236 233 232 229 228 226 223 220 219 216 211 202 204 195 182 150 205 223 227 220 218 217 218 220
272 261 265 256 251 244 246 245 236 231 228 222 216 215 225 226 228 233 235 236 234 232 228 229 228 225 222 221 218 215 212 194 197 197 172 157 223 171 212 219 220 220 224
19 325 291 306 276 254 248 243 242 236 229 227 215 214 218 218 226 230 234 231 236 233 230 228 226 225 223 222 223 220 216 212 193 201 217 209 158 176 240 230 220 221 226
49 56 57 62 56 55 174 234 242 239 235 228 219 216 222 226 228 230 236 229 238 236 233 229 226 224 224 225 224 221 217 217 209 201 196 218 214 206 190 232 210 214 222
39 43 51 55 51 53 58 61 70 217 238 238 229 224 221 226 228 230 233 236 240 236 232 231 230 227 224 224 224 223 222 219 218 217 215 200 188 197 178 188 245 231 193
53 48 34 32 37 34 29 32 30 31 22 336 245 234 234 231 230 231 231 235 238 236 237 232 230 228 228 226 223 221 220 220 219 222 221 220 223 196 189 182 185 212 172
31 30 23 24 25 21 13 5 4 354 343 328 308 266 240 240 241 241 241 242 246 246 244 235 231 228 224 221 219 218 217 216 217 221 220 217 219 219 198 175 188 240 130
13 13 11 15 12 9 4 357 348 341 330 313 296 280 267 250 243 247 250 251 252 250 246 238 230 227 222 217 215 214 211 208 209 212 216 210 185 183 177 199 204 199 178
356 5 10 8 5 3 356 354 349 336 326 314 296 278 269 264 257 251 251 250 251 247 242 234 227 222 218 213 206 202 197 196 192 185 172 169 154 150 166 174 172 190 159
320 333 355 4 1 3 3 358 354 344 333 322 305 282 267 259 255 247 244 240 238 236 229 219 209 206 204 198 192 188 183 173 160 154 153 143 141 144 136 115 250 245 222
265 188 27 1 4 6 3 4 358 353 349 340 323 301 277 264 245 225 220 216 213 211 208 197 191 189 183 178 174 161 157 151 144 138 130 122 128 151 262 290 265 265 255
165 132 74 23 12 6 14 9 4 3 8 14 26 44 49 75 175 181 170 168 174 172 171 176 173 164 162 157 153 148 141 138 137 137 132 135 150 194 251 244 244 248 260
143 114 40 24 11 15 23 15 16 19 23 34 43 60 80 106 121 124 127 132 138 140 143 144 145 149 145 144 141 141 137 131 131 134 145 171 185 191 249 251 261 269 281
125 108 77 40 27 35 31 27 32 40 49 55 71 77 95 110 114 117 125 127 127 127 134 134 134 135 136 137 134 131 133 137 136 132 133 183 223 183 233 260 289 288 281
148 114 82 56 30 43 34 32 36 44 55 62 61 85 97 109 107 109 110 113 118 130 127 118 118 116 116 125 132 133 134 131 130 122 135 187 153 232 267 273 273 280 301
135 108 95 77 52 42 45 39 43 63 66 64 65 79 95 100 107 112 114 109 109 116 117 123 127 124 117 124 125 121 114 115 121 127 138 157 250 295 298 297 308 302 293
137 117 104 98 80 66 69 68 59 77 84 77 74 71 88 98 101 106 109 116 116 111 112 118 117 111 107 116 111 110 114 115 117 124 115 315 316 325 314 315 308 305 308
114 111 110 112 110 97 96 91 80 77 80 82 78 85 102 99 101 104 112 116 121 117 117 118 118 112 105 106 103 102 106 111 118 97 346 346 344 333 321 319 324 316 312
117 115 117 118 109 93 101 96 86 84 77 85 92 102 113 115 113 117 121 120 120 117 113 106 104 108 107 89 83 87 107 103 90 9 4 354 334 330 328 326 321 309 308
120 127 123 108 108 106 100 90 94 85 95 100 109 119 122 124 124 122 123 122 119 116 114 116 114 105 98 105 97 106 73 47 17 7 352 345 344 328 322 318 309 310 317
133 132 118 108 106 109 113 104 93 107 110 116 120 123 125 124 122 118 119 119 122 118 116 118 115 112 112 113 97 79 48 27 3 355 347 342 331 328 329 326 326 321 312
137 133 125 114 107 120 125 112 118 124 124 125 121 122 123 121 116 120 123 125 129 127 128 126 119 110 103 103 76 50 26 14 2 352 340 337 336 334 333 338 329 322 319
149 143 133 128 122 126 129 124 130 132 131 127 127 129 125 121 119 124 130 129 131 132 132 127 116 103 90 78 41 20 7 359 353 340 339 341 343 344 338 342 345 337 327
155 152 143 140 137 137 133 135 139 144 137 134 135 134 131 131 128 119 117 117 114 130 134 124 116 110 102 50 17 3 355 350 350 332 342 354 356 354 351 346 341 338 333
163 154 142 138 141 142 141 147 152 156 151 146 147 145 142 137 131 122 109 93 100 107 106 97 85 92 55 12 4 356 356 352 348 345 352 347 348 345 339 334 333 334 334
Height
761 760 762 766 767 768 769 771 773 774 778 782 786 788 789 791 793 795 800 803 805 808 811 814 817 821 824 827 831 834 837 839 841 845 846 846 847 848 849 850 851 852 853
760 758 759 760 762 762 764 766 767 770 772 775 778 781 783 786 787 790 793 795 798 801 804 806 809 813 817 821 824 827 831 835 836 839 843 844 845 844 844 846 847 849 850
756 755 756 757 757 758 759 761 762 764 767 770 774 776 780 781 784 784 785 785 789 792 795 797 801 806 809 812 816 820 824 827 832 834 835 841 836 840 839 841 843 844 846
756 754 755 754 755 754 754 755 757 759 761 764 768 770 771 773 774 776 776 779 780 783 787 789 793 797 801 804 808 814 817 821 823 830 830 829 829 835 839 838 837 839 842
759 757 756 756 754 752 751 752 753 754 756 757 761 764 766 767 769 771 773 773 773 776 779 781 784 788 793 797 800 805 809 813 817 819 823 826 825 826 833 833 834 833 836
760 758 758 757 755 753 753 753 752 752 752 753 754 757 758 760 764 765 766 767 769 771 773 775 778 781 783 787 791 796 802 806 810 813 816 818 823 822 825 830 833 833 829
761 760 759 757 755 753 754 754 753 751 750 749 750 752 753 756 757 759 761 762 763 764 765 767 771 773 776 780 784 789 795 799 804 808 810 814 817 818 820 825 827 831 827
761 760 759 757 755 754 753 751 750 749 748 748 748 748 748 751 751 752 753 754 756 757 759 761 764 768 771 775 779 785 790 795 801 805 807 810 813 815 816 820 827 832 823
761 760 758 757 755 753 751 749 746 745 745 745 744 743 744 744 744 745 748 749 750 751 754 757 760 763 768 771 776 781 786 793 797 802 806 810 813 814 814 819 820 825 823
760 760 759 759 757 754 751 748 745 742 740 739 738 738 739 739 739 739 741 744 746 748 751 753 756 760 764 768 773 778 783 789 794 799 804 810 813 817 822 823 821 823 821
760 760 759 758 756 754 751 748 744 740 737 735 733 733 733 734 734 735 737 740 743 745 748 751 754 758 762 767 772 777 782 787 793 799 803 808 811 820 818 821 823 821 820
758 758 759 758 756 753 750 746 744 741 737 733 731 730 730 731 732 734 736 738 741 744 746 749 752 757 761 766 771 778 785 790 795 799 804 808 812 819 817 815 823 822 824
755 756 757 757 755 752 749 747 744 740 736 734 731 730 731 733 734 735 737 738 740 744 748 751 754 756 761 766 773 779 786 793 797 801 804 809 810 813 817 818 818 819 819
752 754 754 754 754 752 749 748 745 741 738 736 735 734 734 734 735 737 739 742 744 747 750 754 757 759 763 768 775 780 787 792 799 800 805 809 810 809 816 818 817 817 815
751 752 753 754 754 752 751 751 748 745 743 740 740 740 740 739 740 742 743 744 746 752 755 757 762 766 768 772 777 782 788 794 799 802 805 807 807 807 816 814 813 814 810
749 750 752 753 754 752 752 752 750 748 746 745 746 745 745 744 745 747 748 750 754 755 760 763 766 771 774 779 783 786 790 794 798 801 805 809 807 810 811 811 811 809 805
748 750 753 753 754 753 753 754 754 752 750 752 753 752 751 751 751 753 752 756 761 765 767 770 773 775 780 784 787 789 793 796 800 803 806 808 810 809 809 809 805 803 803
749 751 752 754 755 756 757 758 757 754 754 757 758 758 758 757 759 760 757 762 766 770 775 777 779 782 786 790 790 791 794 799 802 803 806 808 807 806 806 804 802 800 798
751 752 753 755 757 758 757 759 760 759 759 758 760 761 763 765 766 765 765 770 773 777 782 782 786 788 791 793 794 795 799 801 803 804 805 804 802 804 803 801 798 795 793
752 754 755 757 758 760 760 759 761 761 762 762 762 766 768 770 771 773 775 776 779 784 788 789 792 794 795 797 797 798 801 802 803 803 801 800 802 801 800 798 795 794 792
754 756 757 758 759 760 760 762 764 763 764 765 766 771 772 775 777 778 781 783 786 788 791 793 795 797 798 799 800 802 802 801 800 800 800 800 800 799 797 795 793 791 788
755 757 757 759 760 761 762 762 764 766 767 770 772 775 778 780 782 784 787 789 790 792 794 796 798 799 800 801 803 803 801 801 800 800 799 799 798 796 793 791 789 787 784
755 757 758 760 761 762 763 763 767 770 771 774 777 780 783 785 787 789 791 793 794 795 797 799 800 800 801 801 802 801 801 800 799 799 798 796 794 791 788 787 785 783 781
755 756 759 761 763 764 765 765 768 773 776 778 781 784 786 788 790 792 794 795 796 797 798 799 800 800 801 801 801 801 800 799 797 796 795 793 791 789 787 784 783 781 779
754 755 758 761 764 766 767 769 772 776 779 782 785 787 789 791 793 795 796 797 798 798 798 799 800 801 801 801 801 800 799 798 797 794 793 791 788 787 784 782 780 778 776
753 756 757 761 765 768 769 772 775 779 782 784 788 790 792 794 795 796 798 799 799 799 799 800 800 800 801 800 800 799 798 796 795 793 792 790 788 786 783 781 778 776 774